SAUDISAT 1C (SO-50) (27607 NORAD) Tracking and Keplerian Element Data

This shows tracking and keplerian element data for the satellite.

Feedback or suggestion? Click here.




ElementValue
Catalog27607
NameSAUDISAT 1C (SO-50)
Epoch Orbit17362
Epoch Day286.14617766
Epoch Year2024
RAAN221.8224
Inclination64.5541
Eccentricity0.0028391
Argument of Perigee49.3267
Mean Anonmoly311.0299
Mean Motion14.79956466
Decay Rate7.57E-05
L11 27607U 02058C 24286.14617766 .00007570 00000+0 10092-2 0 9999
L22 27607 64.5541 221.8224 0028391 49.3267 311.0299 14.79956466173625



Live tracking and technical data element details for SAUDISAT 1C (SO-50) (NORAD 27607). SAUDISAT 1C (SO-50) can be tracked NOW for your location showing map with azimuth and elevation plus other details from your city location.







IsCatalogInMostPopularTable: catalog: 27607, numindb: 999
Update: records affected: 1



GetName: 27607 SAUDISAT 1C (SO-50)

Hit Count: updated at: Wed, 04 Dec 2024 21:23:27 GMT